Home   Weather   Richmond   Past weeks

Flag for Canada Past Weather in Richmond, British Columbia, Canada — Yesterday and Last 2 Weeks

Now
34 °F

Light snow. Mostly cloudy.


Feels Like: 24 °F
Forecast: 32 / 37 °F
Wind: 14 mph from East

Location: Vancouver International Airport

Current Time: Dec 5, 2016 at 12:52:06 pm

Latest Report: Dec 5, 2016 at 12:03 pm


Visibility: 1 mi

Pressure: 30.03 "Hg

Humidity: 93%

Dew Point: 32 °F

Location of RichmondLocation

Past Weather in Richmond — Graph

°F

Richmond Temperature Yesterday

Maximum temperature yesterday: 43 °F (at 12:00 am)
Minimum temperature yesterday: 34 °F (at 10:00 pm)
Average temperature yesterday: 40 °F

High & Low Weather Summary for the Past Weeks

 TemperatureHumidityPressure
High54 °F (Nov 20, 11:00 am)100% (Nov 22, 10:00 pm)30.32 "Hg (Nov 22, 10:00 pm)
Low32 °F (Dec 5, 6:00 am)62% (Nov 21, 3:00 pm)29.41 "Hg (Nov 27, 8:00 pm)
Average44 °F87%29.91 "Hg
* Reported Nov 20 11:00 am — Dec 5 11:00 am, Richmond, Weather by CustomWeather, © 2016

Note: Actual official high and low records may vary slightly from our data, if they occured in-between our weather recording intervals... More about our weather records

Advertising

Richmond Weather History for the Previous 24 Hours

Scroll right to see more
 ConditionsComfort  
Time TempWeatherWind HumidityBarometerVisibility
11:00 am
Mon, Dec 5
34 °FLight snow. Cloudy.13 mph93%30.03 "Hg2 mi
10:46 am34 °FLight snow. Mostly cloudy.12 mph93%30.03 "Hg2 mi
10:00 am34 °FLight snow. Mostly cloudy.16 mph93%30.03 "Hg2 mi
9:00 am34 °FLight snow. Mostly cloudy.16 mph93%30.03 "Hg7 mi
8:00 am34 °FLight snow. More clouds than sun.14 mph93%30.04 "Hg8 mi
7:53 am34 °FLight snow. Mostly cloudy.13 mph100%30.04 "Hg7 mi
7:00 am32 °FLight snow. Low clouds.9 mph100%30.05 "Hg1 mi
6:00 am32 °FSnow flurries. Mostly cloudy.9 mph100%30.06 "Hg2 mi
5:00 am34 °FSprinkles. Mostly cloudy.13 mph100%30.06 "Hg10 mi
4:51 am36 °FSprinkles. Mostly cloudy.15 mph93%30.06 "Hg10 mi
4:00 am36 °FMostly cloudy.14 mph93%30.07 "Hg15 mi
3:00 am36 °FMostly cloudy.10 mph87%30.09 "Hg20 mi
2:00 am34 °FMostly cloudy.7 mph93%30.09 "Hg20 mi
1:00 am34 °FPassing clouds.8 mph93%30.09 "Hg20 mi
12:00 am34 °FPartly cloudy.9 mph93%30.11 "Hg20 mi
11:00 pm
Sun, Dec 4
34 °FPassing clouds.7 mph87%30.11 "Hg20 mi
10:00 pm34 °FPassing clouds.8 mph87%30.09 "Hg20 mi
9:00 pm36 °FPassing clouds.5 mph81%30.09 "Hg20 mi
8:00 pm36 °FPassing clouds.5 mph81%30.07 "Hg20 mi
7:00 pm37 °FPassing clouds.12 mph87%30.06 "Hg20 mi
6:00 pm41 °FPassing clouds.15 mph66%30.06 "Hg30 mi
5:00 pm41 °FPassing clouds.17 mph70%30.05 "Hg30 mi
4:00 pm41 °FPartly sunny.16 mph70%30.04 "Hg30 mi
3:00 pm43 °FPartly sunny.14 mph66%30.02 "Hg30 mi
2:00 pm43 °FPartly sunny.18 mph71%30.01 "Hg30 mi
1:00 pm43 °FPassing clouds.20 mph71%30.02 "Hg30 mi
12:00 pm43 °FPassing clouds.25 mph71%30.01 "Hg30 mi
Weather by CustomWeather, © 2016

See weather overviewHow to use our weather pages